Weather History for KHNB - January, 2012

Change the Weather History Date:

Friday, January 6, 2012

  Actual Average Record
Temperature  
Mean Temperature 50 °F -  
Max Temperature 60 °F 39 °F 62 °F (1998)
Min Temperature 39 °F 25 °F -5 °F (2014)
Degree Days  
Heating Degree Days 16    
Moisture  
Dew Point 31 °F    
Average Humidity 51    
Maximum Humidity 65    
Minimum Humidity 36    
Precipitation  
Precipitation 0.00 in - - ()
Sea Level Pressure  
Sea Level Pressure 29.91 in    
Wind  
Wind Speed 10 mph (SSE)    
Max Wind Speed 18 mph    
Max Gust Speed 26 mph    
Visibility 10 miles    
Events      
Averages and records for this station are not official NWS values.
T = Trace of Precipitation, MM = Missing Value Source: NWS Daily Summary

Daily Weather History Graph

Daily Weather History Graph

Search for Another Location

Airport or City:

Trip Planner

Search our weather history database for the weather conditions in past years. The results will help you decide how hot, cold, wet, or windy it might be!

Date:

Astronomy

Jan. 06, 2012 Rise Set
Actual Time 8:04 AM EST 5:42 PM EST
Civil Twilight 7:35 AM EST 6:11 PM EST
Nautical Twilight 7:02 AM EST 6:44 PM EST
Astronomical Twilight 6:30 AM EST 7:16 PM EST
Moon 3:32 PM EST (1/6) 5:44 AM EST (1/6)
Length of Visible Light 10h 36m
Length of Day
9h 37m
Waxing Gibbous, 93% of the Moon is Illuminated
Jan 6
Waxing Gibbous
Jan 9
Full
Jan 16
Last Quarter
Jan 23
New
Jan 30
First Quarter

Hourly Weather History & Observations

Time (EST) Temp. Windchill Dew Point Humidity Pressure Visibility Wind Dir Wind Speed Gust Speed Precip Events Conditions
12:35 AM 42.8 °F 37.5 °F 28.4 °F 57% 29.97 in 10.0 mi SSE 9.2 mph - N/A   Clear
12:55 AM 42.8 °F 38.0 °F 28.4 °F 57% 29.96 in 10.0 mi SSE 8.1 mph - N/A   Clear
1:15 AM 42.8 °F 38.6 °F 28.4 °F 57% 29.95 in 10.0 mi SE 6.9 mph - N/A   Clear
1:35 AM 41.0 °F 37.1 °F 28.4 °F 61% 29.96 in 10.0 mi SE 5.8 mph - N/A   Clear
1:55 AM 41.0 °F 36.4 °F 28.4 °F 61% 29.95 in 10.0 mi SE 6.9 mph - N/A   Clear
2:35 AM 41.0 °F 36.4 °F 28.4 °F 61% 29.95 in 10.0 mi SSE 6.9 mph - N/A   Clear
3:15 AM 42.8 °F 37.5 °F 28.4 °F 57% 29.95 in 10.0 mi SSE 9.2 mph - N/A   Clear
3:35 AM 42.8 °F 37.0 °F 28.4 °F 57% 29.95 in 10.0 mi SSE 10.4 mph - N/A   Clear
4:15 AM 41.0 °F 35.8 °F 28.4 °F 61% 29.95 in 10.0 mi SSE 8.1 mph - N/A   Clear
4:35 AM 41.0 °F 34.7 °F 28.4 °F 61% 29.94 in 10.0 mi SSE 10.4 mph - N/A   Clear
4:55 AM 41.0 °F 35.2 °F 28.4 °F 61% 29.94 in 10.0 mi SSE 9.2 mph - N/A   Clear
5:15 AM 39.2 °F 33.6 °F 26.6 °F 61% 29.94 in 10.0 mi SE 8.1 mph - N/A   Clear
5:35 AM 39.2 °F 33.0 °F 28.4 °F 65% 29.94 in 10.0 mi SE 9.2 mph - N/A   Clear
5:55 AM 39.2 °F 33.6 °F 26.6 °F 61% 29.94 in 10.0 mi SE 8.1 mph - N/A   Clear
6:15 AM 39.2 °F 32.5 °F 26.6 °F 61% 29.94 in 10.0 mi SE 10.4 mph - N/A   Clear
6:35 AM 39.2 °F 33.0 °F 28.4 °F 65% 29.95 in 10.0 mi SE 9.2 mph - N/A   Clear
6:55 AM 39.2 °F 32.5 °F 28.4 °F 65% 29.94 in 10.0 mi SE 10.4 mph - N/A   Clear
7:15 AM 39.2 °F 33.6 °F 28.4 °F 65% 29.94 in 10.0 mi SE 8.1 mph - N/A   Clear
7:35 AM 39.2 °F 34.2 °F 28.4 °F 65% 29.94 in 10.0 mi SE 6.9 mph - N/A   Clear
7:55 AM 39.2 °F 34.2 °F 28.4 °F 65% 29.94 in 10.0 mi ESE 6.9 mph - N/A   Clear
8:15 AM 39.2 °F 33.6 °F 28.4 °F 65% 29.95 in 10.0 mi SE 8.1 mph - N/A   Clear
8:35 AM 39.2 °F 33.0 °F 28.4 °F 65% 29.95 in 10.0 mi SE 9.2 mph - N/A   Clear
8:55 AM 41.0 °F 34.7 °F 28.4 °F 61% 29.95 in 10.0 mi SE 10.4 mph - N/A   Clear
9:15 AM 42.8 °F 37.5 °F 30.2 °F 61% 29.95 in 10.0 mi SE 9.2 mph - N/A   Clear
9:35 AM 44.6 °F 39.7 °F 30.2 °F 57% 29.96 in 10.0 mi SSE 9.2 mph - N/A   Clear
9:55 AM 44.6 °F 40.2 °F 30.2 °F 57% 29.96 in 10.0 mi SSE 8.1 mph - N/A   Clear
10:15 AM 46.4 °F 39.8 °F 30.2 °F 53% 29.96 in 10.0 mi SSE 16.1 mph 19.6 mph N/A   Clear
10:35 AM 48.2 °F - 32.0 °F 54% 29.96 in 10.0 mi South 15.0 mph 18.4 mph N/A   Clear
10:55 AM 48.2 °F - 33.8 °F 58% 29.95 in 10.0 mi SSE 16.1 mph - N/A   Clear
11:15 AM 51.8 °F - 33.8 °F 50% 29.95 in 10.0 mi SSE 18.4 mph 23.0 mph N/A   Clear
11:35 AM 51.8 °F - 33.8 °F 50% 29.95 in 10.0 mi SSE 16.1 mph - N/A   Clear
11:55 AM 53.6 °F - 33.8 °F 47% 29.94 in 10.0 mi SSE 15.0 mph - N/A   Clear
12:15 PM 55.4 °F - 35.6 °F 47% 29.92 in 10.0 mi SSE 13.8 mph 18.4 mph N/A   Clear
12:35 PM 57.2 °F - 35.6 °F 44% 29.91 in 10.0 mi SSE 16.1 mph - N/A   Clear
12:55 PM 57.2 °F - 33.8 °F 41% 29.90 in 10.0 mi South 17.3 mph 25.3 mph N/A   Clear
1:15 PM 59.0 °F - 35.6 °F 42% 29.89 in 10.0 mi SSE 18.4 mph 21.9 mph N/A   Clear
1:35 PM 60.8 °F - 33.8 °F 36% 29.88 in 10.0 mi South 18.4 mph 26.5 mph N/A   Clear
1:55 PM 60.8 °F - 35.6 °F 39% 29.86 in 10.0 mi South 15.0 mph - N/A   Clear
2:15 PM 60.8 °F - 33.8 °F 36% 29.84 in 10.0 mi SSE 12.7 mph 19.6 mph N/A   Clear
2:35 PM 60.8 °F - 33.8 °F 36% 29.86 in 10.0 mi South 17.3 mph 21.9 mph N/A   Clear
2:55 PM 60.8 °F - 33.8 °F 36% 29.85 in 10.0 mi SSE 16.1 mph - N/A   Clear
3:15 PM 60.8 °F - 33.8 °F 36% 29.85 in 10.0 mi South 13.8 mph - N/A   Clear
3:35 PM 60.8 °F - 33.8 °F 36% 29.85 in 10.0 mi South 18.4 mph 24.2 mph N/A   Clear
3:55 PM 60.8 °F - 33.8 °F 36% 29.84 in 10.0 mi South 18.4 mph 24.2 mph N/A   Clear
4:15 PM 60.8 °F - 33.8 °F 36% 29.84 in 10.0 mi South 17.3 mph 24.2 mph N/A   Clear
4:35 PM 60.8 °F - 33.8 °F 36% 29.84 in 10.0 mi SSE 12.7 mph 18.4 mph N/A   Clear
5:15 PM 59.0 °F - 32.0 °F 36% 29.84 in 10.0 mi SSE 10.4 mph - N/A   Clear
5:35 PM 57.2 °F - 30.2 °F 36% 29.85 in 10.0 mi SSE 10.4 mph - N/A   Clear
5:55 PM 55.4 °F - 30.2 °F 38% 29.85 in 10.0 mi SSE 10.4 mph 18.4 mph N/A   Clear
6:35 PM 50.0 °F - 30.2 °F 47% 29.85 in 10.0 mi SE 6.9 mph - N/A   Clear
6:55 PM 50.0 °F - 30.2 °F 47% 29.85 in 10.0 mi SSE 8.1 mph - N/A   Clear
7:15 PM 50.0 °F - 30.2 °F 47% 29.86 in 10.0 mi SSE 8.1 mph - N/A   Clear
7:35 PM 51.8 °F - 30.2 °F 44% 29.86 in 10.0 mi SSE 9.2 mph - N/A   Clear
7:55 PM 51.8 °F - 30.2 °F 44% 29.86 in 10.0 mi SSE 9.2 mph - N/A   Clear
8:15 PM 51.8 °F - 30.2 °F 44% 29.86 in 10.0 mi SSE 9.2 mph - N/A   Clear
8:35 PM 51.8 °F - 30.2 °F 44% 29.87 in 10.0 mi SSE 6.9 mph - N/A   Clear
8:55 PM 48.2 °F - 30.2 °F 50% 29.87 in 10.0 mi SSE 9.2 mph - N/A   Clear
9:15 PM 50.0 °F - 32.0 °F 50% 29.86 in 10.0 mi SSE 9.2 mph - N/A   Clear
9:35 PM 50.0 °F - 32.0 °F 50% 29.86 in 10.0 mi SSE 8.1 mph - N/A   Clear
9:55 PM 50.0 °F - 33.8 °F 54% 29.86 in 10.0 mi SSE 10.4 mph - N/A   Clear
10:15 PM 50.0 °F - 33.8 °F 54% 29.86 in 10.0 mi SSE 10.4 mph - N/A   Clear
10:35 PM 48.2 °F - 33.8 °F 58% 29.85 in 10.0 mi SSE 9.2 mph - N/A   Clear
10:55 PM 48.2 °F - 35.6 °F 62% 29.85 in 10.0 mi SSE 10.4 mph - N/A   Clear
11:15 PM 48.2 °F - 37.4 °F 66% 29.85 in 10.0 mi SSE 9.2 mph - N/A   Clear
11:35 PM 50.0 °F - 37.4 °F 62% 29.84 in 10.0 mi SSE 9.2 mph - N/A   Clear
11:55 PM 48.2 °F - 37.4 °F 66% 29.84 in 10.0 mi SSE 9.2 mph - N/A   Clear